Flag for Germany Past Weather in Weiden in der Oberpfalz, Bavaria, Germany — Yesterday and Last 2 Weeks

Now
48 °F

Sunny.


Feels Like: 44 °F
Forecast: 35 / 42 °F
Wind: 9 mph from Northwest

Location: Grafenwoehr

Current Time: Apr 25, 2017 at 6:42:25 pm

Latest Report: Apr 25, 2017 at 5:58 pm


Visibility: N/A

Pressure: 29.76 "Hg

Humidity: 71%

Dew Point: 39 °F

Location of Weiden in der OberpfalzLocation

Past Weather in Weiden in der Oberpfalz — Graph

°F

Weiden in der Oberpfalz Temperature Yesterday

Maximum temperature yesterday: 57 °F (at 4:58 pm)
Minimum temperature yesterday: 27 °F (at 5:58 am)
Average temperature yesterday: 43 °F

High & Low Weather Summary for the Past Weeks

 TemperatureHumidityPressure
High72 °F (Apr 10, 4:58 pm)100% (Apr 12, 5:58 am)30.58 "Hg (Apr 12, 5:58 am)
Low21 °F (Apr 21, 4:58 am)27% (Apr 10, 4:58 pm)29.70 "Hg (Apr 25, 5:58 am)
Average43 °F70%30.10 "Hg
* Reported Apr 10 4:58 pm — Apr 25 4:58 pm, Weiden in der Oberpfalz, Weather by CustomWeather, © 2017

Note: Actual official high and low records may vary slightly from our data, if they occured in-between our weather recording intervals... More about our weather records

Advertising

Weiden in der Oberpfalz Weather History for the Previous 24 Hours

Scroll right to see more
 ConditionsComfort  
Time TempWeatherWind HumidityBarometerVisibility
4:58 pm
Tue, Apr 25
52 °FPassing clouds.10 mph62%29.76 "HgN/A
3:58 pm54 °FOvercast.13 mph58%29.75 "HgN/A
2:58 pm57 °FOvercast.13 mph43%29.73 "HgN/A
1:58 pm57 °FPartly sunny.14 mph41%29.72 "HgN/A
12:58 pm57 °FPartly sunny.13 mph41%29.72 "HgN/A
11:58 am55 °FBroken clouds.12 mph44%29.72 "HgN/A
10:58 am55 °FPassing clouds.13 mph47%29.72 "HgN/A
9:58 am54 °FSunny.8 mph44%29.70 "HgN/A
8:59 am47 °FScattered clouds.5 mph68%29.71 "HgN/A
7:58 am37 °FSunny.No wind93%29.70 "HgN/A
6:59 am31 °FPartly sunny.No wind91%29.71 "HgN/A
5:58 am31 °FClear.No wind92%29.70 "HgN/A
4:59 am32 °FClear.No wind93%29.71 "HgN/A
3:59 am32 °FClear.No wind87%29.72 "HgN/A
2:58 am32 °FClear.No wind93%29.75 "HgN/A
1:59 am35 °FClear.No wind87%29.76 "HgN/A
12:59 am36 °FClear.No wind86%29.78 "HgN/A
11:58 pm
Mon, Apr 24
38 °FClear.No wind81%29.80 "HgN/A
10:58 pm41 °FClear.No wind70%29.83 "HgN/A
9:59 pm44 °FClear.No wind64%29.84 "HgN/A
8:59 pm49 °FClear.No wind53%29.85 "HgN/A
7:59 pm54 °FSunny.3 mph41%29.87 "HgN/A
6:59 pm57 °FSunny.5 mph33%29.89 "HgN/A
Weather by CustomWeather, © 2017

See weather overviewHow to use our weather pages